Regional Weather Roundup
Issued by NWS Cleveland, OH

Home | Current Version | Previous Version | Graphics & Text | Print | Product List | Glossary On
Versions: 1 2 3 4 5 6 7 8 9 10 11 12 13 14 15 16 17 18 19 20 21 22 23 24 25 26 27 28 29 30 31 32 33 34 35 36 37 38 39 40 41 42 43 44 45 46 47 48 49 50
829
ASUS41 KCLE 181002
RWRCLE
OHIO REGIONAL WEATHER ROUNDUP
NATIONAL WEATHER SERVICE CLEVELAND, OH
500 AM EST SAT NOV 18 2017

NOTE: "FAIR" INDICATES FEW OR NO CLOUDS BELOW 12,000 FEET WITH NO
SIGNIFICANT WEATHER AND/OR OBSTRUCTIONS TO VISIBILITY.

OHZ001>008-015>018-024>027-034-035-043-044-181100-
   NORTHWEST OHIO

CITY           SKY/WX    TMP DP  RH WIND       PRES   REMARKS
DEFIANCE       CLOUDY    45  42  89 S6        29.55F
FINDLAY        LGT RAIN  47  43  86 S12       29.57F
TOLEDO EXPRESS CLOUDY    46  46 100 S6        29.57S
TOLEDO EXEC    CLOUDY    45  43  93 S6        29.58S FOG
LIMA           HVY RAIN  47  45  93 S13G22    29.57F FOG
$$

OHZ009>014-019>023-028>033-038-089-181100-
   NORTHEAST OHIO

CITY           SKY/WX    TMP DP  RH WIND       PRES   REMARKS
CLE-HOPKINS    LGT RAIN  44  41  89 S17G26    29.64F
CLE-LAKEFRONT  LGT RAIN  44  40  85 S12G23    29.62S
CUY CO. ARPT   NOT AVBL
LORAIN-ELYRIA  LGT RAIN  42  37  82 S16G22    29.61F
ASHTABULA      RAIN      40  36  86 S15G22    29.66F FOG
AKRON-CANTON   RAIN      43  39  86 S13       29.66F FOG
WOOSTER        LGT RAIN  41  39  93 S8G20     29.65F
MANSFIELD      CLOUDY    44  40  85 S16       29.61F
YOUNGSTOWN     HVY RAIN  39  35  86 S12       29.68F FOG
$$

OHZ042-051>053-060>062-070>072-077>081-181100-
  SOUTHWEST OHIO

CITY           SKY/WX    TMP DP  RH WIND       PRES   REMARKS
CINC-COVINGTON CLOUDY    55  45  68 S17G25    29.63F
CINC-LUNKEN    CLOUDY    54  46  74 S10       29.65F
HAMILTON       CLOUDY    55  45  68 S9G17     29.63F
DAYTON         CLOUDY    51  44  77 S20       29.60F
WRIGHT-PAT AFB CLOUDY    52  45  76 S15G21    29.61F
DAYTON GENERAL CLOUDY    52  44  74 S13G20    29.61F
WILMINGTON     CLOUDY    51  46  83 S18G26    29.63F
$$

OHZ036-037-039>041-045>050-054>059-063>069-073>076-082>088-181100-
  CENTRAL AND SOUTHEAST OHIO

CITY           SKY/WX    TMP DP  RH WIND       PRES   REMARKS
COLUMBUS       LGT RAIN  46  42  86 S9        29.65F
OSU AIRPORT    CLOUDY    45  42  89 S10       29.63F
BOLTON FIELD   LGT RAIN  47  44  91 S9        29.65F
RICKENBACK AFB LGT RAIN  44  42  91 S9        29.66S
NEWARK         LGT RAIN  45  40  82 S8        29.66F
MARION         LGT RAIN  45  40  82 S18       29.61F
LANCASTER      HVY RAIN  47  42  83 S8        29.67S
ZANESVILLE     CLOUDY    42  39  89 SE3       29.67F
NEW PHILLY     NOT AVBL
$$




USA.gov is the U.S. government's official web portal to all federal, state and local government web resources and services.